Weather in La Condamine

Monaco     43°44′05″N   7°25′29″E
temp.,
°C
wind,
m/s
gust,
m/s
humid.,
%
clouds,
%
prec.,
mm/h
press.,
hPa
HPBL,
m
14 april, wed
wed1423:00+13wnw3362100 0.0 1021385
02:00+12e226697 0.1 1021302
05:00+12ene456074 0.3 1021507
08:00+11ene557088 0.5 1022781
11:00+10e667538 0.6 1022759
14:00+10e667898 0.9 1022724
17:00+10e336798 0.2 1020664
20:00+10nne2263100 0.3 1020617
15 april, thu
thu1523:00+10n4367100 0.0 1021355
02:00+10n215793 0.0 1020696
05:00+10nnw1160100 0.0 1019384
08:00+10nne2262100 0.0 1020379
11:00+10se326299 0.1 1021823
14:00+10ese536784 0.3 1020745
17:00+10ne326696 0.2 1019642
20:00+11ne1263100 0.4 1018620
16 april, fri
fri1623:00+10nnw326138 0.0 1019301
02:00+10n325310 0.0 1018241
05:00+10n435354 0.0 1017207
08:00+10n32518 0.0 1017241
11:00+12ne3340100 0.0 10171010
14:00+14ese6544100 0.0 1015889
17:00+15e5543100 0.0 10141197
20:00+14ne344833 0.0 1014385
17 april, sat
sat1723:00+11n55495 0.0 1015201
02:00+11nnw565034 0.0 1014207
05:00+11nnw5650100 0.0 1013202
08:00+11n454799 0.0 1013217
11:00+14wsw2232100 0.0 1012336
14:00+14sw6649100 0.0 1012576
17:00+14w6750100 0.0 1011720
20:00+14wsw665797 0.0 1012686
18 april, sun
sun1823:00+13sw3460100 0.3 1013760
02:00+12n2158100 0.3 1013242
05:00+12e3459100 0.1 1013441
08:00+12n3356100 0.1 1013217
11:00+14w325079 0.0 1014297
14:00+13sse335699 0.1 1014464
17:00+13sw445998 0.0 1014506
20:00+14sw556497 0.0 1015468